Location: UMBC
(39.2555°N, 76.7093°W)
Time: 01:54:42
(UTC+02:00)

Amateur Radio Satellites - All Passes

Search period start: 29 September 2016 01:24
Search period end: 30 September 2016 01:24
Location: UMBC, 39.2555°N, 76.7093°W

Satellite Date Start Highest point End Downlink Frequencies (MHz)
Time Altitude Azimuth
BRITE-PL 29 Sep 01:30:22 01:33:12 14° 271° (W) 01:36:02 437.365/2234.400
LilacSat-2 29 Sep 01:30:29 01:33:11 19° 266° (W) 01:35:54 437.200
DOVE 4 29 Sep 01:30:34 01:35:30 53° 260° (W) 01:40:11 437.250
STRAND 1 29 Sep 01:33:11 01:37:11 22° 94° (E) 01:41:10 437.568
RS-15 29 Sep 01:33:54 01:44:42 49° 109° (ESE) 01:56:02 29.354- 29.394
AO-85 29 Sep 01:49:54 01:51:51 12° 107° (ESE) 01:53:48 145.980
CUBESAT XI-V 29 Sep 01:51:00 01:52:53 12° 298° (WNW) 01:54:46 437.345
GONETS M04 29 Sep 01:53:20 02:02:00 57° 78° (ENE) 02:10:33
NOAA 18 29 Sep 01:56:34 02:00:48 23° 265° (W) 02:05:03 137.9125
CUBEBUG 2 29 Sep 02:03:17 02:06:32 22° 69° (ENE) 02:09:45 437.445
DANDE 29 Sep 02:08:27 02:13:26 61° 93° (E) 02:20:04 436.750
COMPASS 1 29 Sep 02:09:20 02:13:06 33° 71° (ENE) 02:16:54 437.405
CUSAT 1 29 Sep 02:11:17 02:17:23 53° 285° (WNW) 02:24:49 437.405
UWE-3 29 Sep 02:19:39 02:22:51 22° 69° (ENE) 02:26:03 435.000/436.395/437.385
CINEMA 3 29 Sep 02:37:18 02:41:27 37° 262° (W) 02:45:29 145.822/145.860
SEEDS 29 Sep 02:39:01 02:43:12 72° 259° (W) 02:47:26 437.485
CUTE 1.7 + AOD 2 29 Sep 02:39:18 02:43:23 48° 261° (W) 02:47:31 437.475
CANX-2 29 Sep 02:40:53 02:44:51 39° 262° (W) 02:48:52 2200.000
ISS 29 Sep 02:41:31 02:44:45 71° 323° (NW) 02:48:01 145.825
Oscar 11 29 Sep 02:43:02 02:46:33 25° 69° (ENE) 02:50:07 145.826/435.025
ZACube-1 29 Sep 02:46:43 02:50:12 27° 70° (ENE) 02:53:43 437.345
PRISM 29 Sep 02:52:40 02:53:29 10° 91° (E) 02:54:18 437.425
HO-68 29 Sep 02:53:26 03:00:17 47° 260° (W) 03:07:10 435.675
AAUSAT CUBESAT 2 29 Sep 02:59:06 03:03:15 80° 259° (W) 03:07:27 437.432
Cosmos 2499 29 Sep 03:00:46 03:08:16 64° 267° (W) 03:16:21 435.465 / 435.565
STRAND 1 29 Sep 03:11:40 03:16:29 41° 290° (WNW) 03:21:17 437.568
AO-85 29 Sep 03:26:31 03:31:46 83° 302° (WNW) 03:36:42 145.980
JUGNU 29 Sep 03:29:39 03:30:42 10° 177° (S) 03:31:44 437.505
CUBEBUG 2 29 Sep 03:39:25 03:43:01 27° 264° (W) 03:46:36 437.445
FUNcube-1 29 Sep 03:39:33 03:43:41 76° 259° (W) 03:47:49 145.935
RS-15 29 Sep 03:45:46 03:57:05 53° 312° (NW) 04:09:00 29.354- 29.394
COMPASS 1 29 Sep 03:45:48 03:48:43 18° 267° (W) 03:51:40 437.405
GONETS M04 29 Sep 03:51:02 03:58:13 29° 277° (W) 04:05:22
DANDE 29 Sep 03:53:07 03:57:05 19° 299° (WNW) 04:01:47 436.750
UWE-3 29 Sep 03:55:36 03:59:10 27° 264° (W) 04:02:45 435.000/436.395/437.385
ANTELSAT 29 Sep 04:09:41 04:10:59 11° 91° (E) 04:12:17 437.575/2403.000
DELFI C3 29 Sep 04:11:27 04:15:26 79° 258° (WSW) 04:19:28 145.870
Oscar 11 29 Sep 04:18:58 04:22:36 26° 265° (W) 04:26:14 145.826/435.025
ISS 29 Sep 04:19:44 04:21:43 15° 341° (NNW) 04:23:43 145.825
ZACube-1 29 Sep 04:23:15 04:26:28 22° 265° (W) 04:29:43 437.345
PRISM 29 Sep 04:25:04 04:29:08 57° 286° (WNW) 04:33:08 437.425
TIGRISAT 29 Sep 04:28:26 04:31:25 18° 93° (E) 04:34:27 435.000
HUMSAT D 29 Sep 04:34:06 04:38:10 89° 93° (E) 04:42:18 437.325/437.525
SO-50 29 Sep 04:40:43 04:41:52 11° 37° (NE) 04:43:00 436.795
AUBIESAT-1 29 Sep 05:07:55 05:09:09 11° 61° (ENE) 05:10:21 437.475
UNISAT 6 29 Sep 05:08:19 05:12:39 52° 100° (E) 05:17:03 437.425
AO-85 29 Sep 05:10:19 05:12:52 14° 318° (NW) 05:15:21 145.980
DX 1 29 Sep 05:16:08 05:18:00 13° 63° (ENE) 05:19:52 434.975-435.025
50 SAT 29 Sep 05:24:32 05:27:07 19° 69° (ENE) 05:29:43 437.505
VELOX 1 29 Sep 05:25:37 05:29:15 25° 68° (ENE) 05:32:53 145.980
CUBEBUG 1 29 Sep 05:26:50 05:30:47 33° 70° (ENE) 05:34:44 437.445
ESTCUBE 1 29 Sep 05:29:41 05:34:07 57° 74° (ENE) 05:38:35 437.505/2401.250
QB50P2 29 Sep 05:30:32 05:31:42 11° 91° (E) 05:32:52 145.880/145.840
POLYITAN 1 29 Sep 05:32:43 05:33:54 11° 91° (E) 05:35:05 437.675
M-CUBED/EXP-1 PRIME 29 Sep 05:43:25 05:47:12 36° 68° (ENE) 05:50:44 437.505
ANTELSAT 29 Sep 05:43:39 05:48:02 63° 285° (WNW) 05:52:30 437.575/2403.000
JAS-2 29 Sep 05:54:49 06:01:12 27° 91° (E) 06:07:15 435.910
SPROUT 29 Sep 06:02:57 06:06:46 33° 71° (ENE) 06:10:36 437.525
TIGRISAT 29 Sep 06:04:06 06:08:14 40° 288° (WNW) 06:12:26 435.000
RS-15 29 Sep 06:04:39 06:13:28 22° 343° (NNW) 06:22:31 29.354- 29.394
DUCHIFAT 1 29 Sep 06:07:14 06:10:40 24° 96° (E) 06:14:06 145.980
QB50P1 29 Sep 06:10:17 06:14:01 30° 97° (E) 06:17:45 145.935-145.965
SRMSAT 29 Sep 06:15:59 06:17:16 11° 179° (S) 06:18:31 437.500
AISAT 29 Sep 06:17:27 06:21:54 83° 256° (WSW) 06:26:23 437.250
SO-50 29 Sep 06:18:39 06:23:14 70° 58° (ENE) 06:27:39 436.795
UKube-1 29 Sep 06:18:50 06:22:57 45° 72° (ENE) 06:27:06 .
POPSAT HIP 1 29 Sep 06:23:42 06:27:43 43° 99° (E) 06:31:44 437.405
NANOSAT C BR1 29 Sep 06:39:10 06:43:20 64° 101° (E) 06:47:30 145.865
AUBIESAT-1 29 Sep 06:39:13 06:43:15 57° 254° (WSW) 06:46:59 437.475
UNISAT 6 29 Sep 06:46:31 06:48:56 15° 295° (WNW) 06:51:22 437.425
DX 1 29 Sep 06:49:20 06:53:39 60° 259° (WSW) 06:58:00 434.975-435.025
BEESAT 3 29 Sep 06:51:15 06:55:02 52° 117° (ESE) 06:58:52 437.485
50 SAT 29 Sep 06:57:25 07:00:26 25° 264° (W) 07:03:30 437.505
VELOX 1 29 Sep 07:01:45 07:05:35 28° 264° (W) 07:09:27 145.980
QB50P2 29 Sep 07:03:41 07:07:50 57° 286° (WNW) 07:11:59 145.880/145.840
CUBEBUG 1 29 Sep 07:03:44 07:07:05 21° 266° (W) 07:10:28 437.445
POLYITAN 1 29 Sep 07:05:53 07:10:01 57° 286° (WNW) 07:14:10 437.675
ESTCUBE 1 29 Sep 07:09:13 07:11:15 13° 269° (W) 07:13:17 437.505/2401.250
M-CUBED/EXP-1 PRIME 29 Sep 07:19:04 07:21:45 17° 260° (W) 07:24:19 437.505
TISAT 1 29 Sep 07:19:10 07:23:10 46° 73° (ENE) 07:27:10 437.305
ISS 29 Sep 07:34:32 07:36:53 18° 22° (NNE) 07:39:15 145.825
Cosmos 2491 29 Sep 07:36:39 07:44:48 39° 73° (ENE) 07:52:51 435.465 / 435.565
JAS-2 29 Sep 07:38:51 07:46:37 63° 289° (WNW) 07:53:56 435.910
SPROUT 29 Sep 07:39:39 07:42:45 19° 266° (W) 07:45:52 437.525
BUGSAT 1 29 Sep 07:40:07 07:44:07 66° 284° (WNW) 07:48:06 437.445
DUCHIFAT 1 29 Sep 07:42:49 07:46:17 26° 291° (WNW) 07:49:44 145.980
QB50P1 29 Sep 07:46:26 07:49:36 21° 292° (WNW) 07:52:46 145.935-145.965
BEESAT 2 29 Sep 07:48:54 07:52:49 71° 302° (WNW) 07:56:48 435.950
UKube-1 29 Sep 07:56:47 07:59:13 15° 267° (W) 08:01:39 .
POPSAT HIP 1 29 Sep 08:00:38 08:03:08 16° 294° (WNW) 08:05:38 437.405
SO-50 29 Sep 08:01:40 08:03:01 11° 253° (WSW) 08:04:23 436.795
ITUPSAT 1 29 Sep 08:09:36 08:13:49 32° 69° (ENE) 08:18:03 437.325
Gurwin Techsat 1B 29 Sep 08:09:54 08:13:49 20° 93° (E) 08:17:41 435.225
NANOSAT C BR1 29 Sep 08:17:22 08:18:31 11° 297° (WNW) 08:19:39 145.865
SWISSCUBE 29 Sep 08:21:38 08:26:12 49° 72° (ENE) 08:30:48 437.505
RS-15 29 Sep 08:22:59 08:32:17 23° 20° (NNE) 08:41:33 29.354- 29.394
BEESAT 3 29 Sep 08:30:39 08:33:00 15° 315° (NW) 08:35:22 437.485
BEESAT 29 Sep 08:34:22 08:39:02 59° 73° (ENE) 08:43:44 436.000
YUBILEINY 29 Sep 08:34:35 08:42:28 39° 86° (E) 08:50:18 435.215
Oscar 19 29 Sep 08:41:30 08:46:41 87° 102° (ESE) 08:51:48 437.125/150
AIST 2 29 Sep 08:45:24 08:47:32 14° 109° (ESE) 08:49:40 435.215
Cosmos 2504 29 Sep 08:49:10 08:52:12 13° 79° (E) 08:55:13 435.465 / 435.565
TISAT 1 29 Sep 08:56:56 08:59:02 13° 268° (W) 09:01:07 437.305
AO-7 29 Sep 09:07:51 09:11:27 13° 89° (E) 09:15:02 29.400- 29.500
ISS 29 Sep 09:10:26 09:13:43 78° 220° (SW) 09:17:00 145.825
JAS-2 29 Sep 09:26:50 09:30:01 13° 308° (NW) 09:33:10 435.910
PCSat 29 Sep 09:32:18 09:36:11 21° 106° (ESE) 09:40:07 145.827
Cosmos 2491 29 Sep 09:33:27 09:41:39 45° 272° (W) 09:49:49 435.465 / 435.565
ITAMSAT 1 29 Sep 09:37:22 09:42:12 37° 98° (E) 09:47:00 435.822/435.867
ITUPSAT 1 29 Sep 09:47:46 09:51:39 25° 265° (W) 09:55:34 437.325
Gurwin Techsat 1B 29 Sep 09:48:53 09:53:58 47° 289° (WNW) 09:59:03 435.225
MOZHAYETS 4 29 Sep 09:50:20 09:54:49 60° 74° (ENE) 09:59:21
SWISSCUBE 29 Sep 10:01:17 10:04:14 16° 267° (W) 10:07:14 437.505
KKS-1 29 Sep 10:06:58 10:11:20 59° 74° (ENE) 10:15:44 437.445
BEESAT 29 Sep 10:14:55 10:17:11 13° 269° (W) 10:19:27 436.000
AIST 2 29 Sep 10:21:34 10:25:33 49° 305° (NW) 10:29:35 435.215
Oscar 19 29 Sep 10:23:33 10:25:13 12° 301° (WNW) 10:26:53 437.125/150
YUBILEINY 29 Sep 10:30:47 10:39:04 44° 285° (WNW) 10:47:22 435.215
RS-15 29 Sep 10:36:13 10:48:24 57° 50° (NE) 11:00:17 29.354- 29.394
Cosmos 2504 29 Sep 10:37:02 10:44:29 89° 95° (E) 10:51:41 435.465 / 435.565
STARS 29 Sep 10:37:16 10:41:35 60° 74° (ENE) 10:45:54 437.465
AO-7 29 Sep 10:57:03 11:05:24 78° 107° (ESE) 11:13:41 29.400- 29.500
CUSAT 1 29 Sep 11:06:24 11:11:54 21° 62° (ENE) 11:16:48 437.405
DANDE 29 Sep 11:08:25 11:10:44 11° 55° (NE) 11:13:01 436.750
CUBESAT XI-V 29 Sep 11:13:18 11:17:54 59° 74° (ENE) 11:22:33 437.345
PCSat 29 Sep 11:13:54 11:19:10 52° 302° (WNW) 11:24:28 145.827
ITAMSAT 1 29 Sep 11:17:10 11:21:28 26° 294° (WNW) 11:25:45 435.822/435.867
HORYU 2 29 Sep 11:20:12 11:23:08 17° 93° (E) 11:26:03 437.375
MOZHAYETS 4 29 Sep 11:30:32 11:32:21 12° 270° (W) 11:34:11
AIST 1 29 Sep 11:33:08 11:37:31 77° 96° (E) 11:41:54
KKS-1 29 Sep 11:46:37 11:48:15 12° 269° (W) 11:49:54 437.445
BRITE-PL 29 Sep 11:56:07 11:59:56 24° 93° (E) 12:03:32 437.365/2234.400
AO-85 29 Sep 11:59:51 12:03:57 58° 56° (NE) 12:07:47 145.980
STARS 29 Sep 12:16:55 12:18:17 11° 269° (W) 12:19:39 437.465
Cosmos 2504 29 Sep 12:35:06 12:38:50 14° 296° (WNW) 12:42:33 435.465 / 435.565
NOAA 18 29 Sep 12:38:36 12:42:34 20° 94° (E) 12:46:30 137.9125
DANDE 29 Sep 12:47:14 12:55:29 55° 75° (ENE) 13:02:59 436.750
CUSAT 1 29 Sep 12:47:15 12:54:53 74° 264° (W) 13:01:05 437.405
STRAND 1 29 Sep 12:48:00 12:52:21 29° 67° (ENE) 12:56:43 437.568
RS-15 29 Sep 12:49:16 13:00:38 46° 252° (WSW) 13:11:42 29.354- 29.394
AO-7 29 Sep 12:51:06 12:57:19 24° 305° (NW) 13:03:32 29.400- 29.500
CUBESAT XI-V 29 Sep 12:53:27 12:55:38 13° 270° (W) 12:57:51 437.345
HORYU 2 29 Sep 12:55:39 12:59:50 41° 289° (WNW) 13:04:01 437.375
LilacSat-2 29 Sep 13:03:29 13:07:11 45° 99° (E) 13:10:54 437.200
GONETS M04 29 Sep 13:04:04 13:06:06 11° 73° (ENE) 13:08:08
NOAA 15 29 Sep 13:04:39 13:09:53 56° 101° (E) 13:15:02 137.62
GOMX 1 29 Sep 13:16:11 13:20:34 74° 102° (ESE) 13:24:43 467.674
CUTE-I 29 Sep 13:25:17 13:30:39 72° 102° (ESE) 13:36:00 437.470
Cubesat XI-IV 29 Sep 13:25:35 13:30:57 71° 103° (ESE) 13:36:18 437.490
DOVE 4 29 Sep 13:30:45 13:34:42 40° 98° (E) 13:38:36 437.250
BRITE-PL 29 Sep 13:34:20 13:38:26 29° 292° (WNW) 13:42:17 437.365/2234.400
O/OREOS (USA 219) 29 Sep 13:37:26 13:41:58 79° 291° (WNW) 13:46:35 437.305
AO-85 29 Sep 13:43:03 13:43:43 10° 253° (WSW) 13:44:22 145.980
Cosmos 2499 29 Sep 13:47:07 13:51:19 17° 81° (E) 13:55:28 435.465 / 435.565
NOAA 18 29 Sep 14:18:11 14:23:28 50° 289° (WNW) 14:28:44 137.9125
HO-68 29 Sep 14:22:08 14:28:38 36° 97° (E) 14:35:06 435.675
SEEDS 29 Sep 14:24:37 14:27:48 20° 94° (E) 14:30:58 437.485
CUTE 1.7 + AOD 2 29 Sep 14:25:19 14:29:07 30° 96° (E) 14:32:53 437.475
CANX-2 29 Sep 14:26:43 14:30:43 36° 97° (E) 14:34:40 2200.000
STRAND 1 29 Sep 14:26:56 14:31:25 31° 263° (W) 14:35:57 437.568
DANDE 29 Sep 14:30:39 14:37:49 33° 274° (W) 14:44:26 436.750
CINEMA 3 29 Sep 14:32:17 14:36:22 50° 100° (E) 14:40:33 145.822/145.860
CUSAT 1 29 Sep 14:33:06 14:35:10 11° 285° (WNW) 14:37:08 437.405
LilacSat-2 29 Sep 14:39:29 14:41:04 12° 294° (WNW) 14:42:39 437.200
AAUSAT CUBESAT 2 29 Sep 14:43:24 14:46:11 17° 93° (E) 14:48:56 437.432
NOAA 15 29 Sep 14:45:36 14:49:10 19° 297° (WNW) 14:52:45 137.62
GONETS M04 29 Sep 14:52:23 15:01:06 68° 93° (E) 15:09:53
CUTE-I 29 Sep 15:07:07 15:10:04 15° 299° (WNW) 15:13:00 437.470
Cubesat XI-IV 29 Sep 15:07:26 15:10:23 15° 299° (WNW) 15:13:21 437.490
BEESAT 3 29 Sep 15:09:35 15:12:50 23° 49° (NE) 15:16:03 437.485
DOVE 4 29 Sep 15:09:39 15:12:04 15° 295° (WNW) 15:14:29 437.250
PRISM 29 Sep 15:12:47 15:16:57 86° 77° (ENE) 15:21:10 437.425
TIGRISAT 29 Sep 15:27:20 15:29:26 14° 64° (ENE) 15:31:31 435.000
COMPASS 1 29 Sep 15:28:01 15:32:15 75° 102° (ESE) 15:36:27 437.405
FUNcube-1 29 Sep 15:28:49 15:32:12 22° 95° (E) 15:35:37 145.935
CUBEBUG 2 29 Sep 15:29:59 15:34:14 60° 100° (E) 15:38:38 437.445
Cosmos 2499 29 Sep 15:36:23 15:43:32 73° 279° (W) 15:50:37 435.465 / 435.565
UWE-3 29 Sep 15:44:59 15:49:16 57° 100° (E) 15:53:39 435.000/436.395/437.385
DELFI C3 29 Sep 15:51:23 15:53:33 14° 92° (E) 15:55:42 145.870
SEEDS 29 Sep 15:59:44 16:03:32 32° 289° (WNW) 16:07:18 437.485
CUTE 1.7 + AOD 2 29 Sep 16:01:26 16:04:47 22° 292° (WNW) 16:08:06 437.475
CANX-2 29 Sep 16:03:16 16:06:17 19° 293° (WNW) 16:09:17 2200.000
Oscar 11 29 Sep 16:06:15 16:10:34 59° 100° (E) 16:14:52 145.826/435.025
UNISAT 6 29 Sep 16:06:18 16:10:15 38° 72° (ENE) 16:14:13 437.425
BEESAT 2 29 Sep 16:07:45 16:11:39 46° 55° (NE) 16:15:30 435.950
HO-68 29 Sep 16:09:45 16:16:21 42° 295° (WNW) 16:22:56 435.675
JAS-2 29 Sep 16:10:46 16:11:48 10° 50° (NE) 16:12:49 435.910
ZACube-1 29 Sep 16:10:57 16:15:19 71° 102° (ESE) 16:19:45 437.345
CINEMA 3 29 Sep 16:11:07 16:13:07 13° 295° (WNW) 16:15:07 145.822/145.860
AAUSAT CUBESAT 2 29 Sep 16:17:54 16:21:46 36° 288° (WNW) 16:25:36 437.432
HUMSAT D 29 Sep 16:19:32 16:22:10 16° 93° (E) 16:24:46 437.325/437.525
PHONESAT 2.4 29 Sep 16:34:28 16:37:13 38° 157° (SSE) 16:39:59 2401.200-2431.200
ANTELSAT 29 Sep 16:41:17 16:45:32 83° 257° (WSW) 16:49:49 437.575/2403.000
BEESAT 3 29 Sep 16:46:59 16:50:29 30° 246° (WSW) 16:53:57 437.485
GONETS M04 29 Sep 16:51:39 16:58:38 26° 292° (WNW) 17:05:41
DUCHIFAT 1 29 Sep 16:58:51 17:01:29 17° 66° (ENE) 17:04:08 145.980
TIGRISAT 29 Sep 17:01:32 17:05:40 50° 260° (W) 17:09:50 435.000
QB50P1 29 Sep 17:02:10 17:05:17 21° 68° (ENE) 17:08:25 145.935-145.965
FUNcube-1 29 Sep 17:04:36 17:08:26 31° 289° (WNW) 17:12:21 145.935
CUBEBUG 2 29 Sep 17:08:39 17:10:23 12° 295° (WNW) 17:12:10 437.445
POPSAT HIP 1 29 Sep 17:15:19 17:18:54 28° 70° (ENE) 17:22:29 437.405
UWE-3 29 Sep 17:23:17 17:25:16 13° 295° (WNW) 17:27:15 435.000/436.395/437.385
DELFI C3 29 Sep 17:24:47 17:28:33 40° 287° (WNW) 17:32:18 145.870
ESTCUBE 1 29 Sep 17:25:02 17:27:07 13° 91° (E) 17:29:11 437.505/2401.250
NANOSAT C BR1 29 Sep 17:30:08 17:34:02 39° 72° (ENE) 17:37:57 145.865
Cosmos 2499 29 Sep 17:36:49 17:38:00 10° 299° (WNW) 17:39:10 435.465 / 435.565
Oscar 11 29 Sep 17:44:19 17:46:11 13° 296° (WNW) 17:48:02 145.826/435.025
UNISAT 6 29 Sep 17:44:25 17:47:07 16° 267° (W) 17:49:49 437.425
BEESAT 2 29 Sep 17:46:51 17:49:03 14° 251° (WSW) 17:51:16 435.950
JAS-2 29 Sep 17:48:42 17:55:02 57° 70° (ENE) 18:02:12 435.910
ZACube-1 29 Sep 17:50:01 17:51:01 11° 297° (WNW) 17:52:02 437.345
HUMSAT D 29 Sep 17:53:55 17:57:55 41° 287° (WNW) 18:01:57 437.325/437.525
QB50P2 29 Sep 17:54:46 17:58:59 90° 73° (ENE) 18:03:12 145.880/145.840
POLYITAN 1 29 Sep 17:56:58 18:01:11 90° 34° (NE) 18:05:23 437.675
AISAT 29 Sep 18:09:30 18:12:42 20° 94° (E) 18:15:53 437.250
PHONESAT 2.4 29 Sep 18:10:18 18:13:14 72° 354° (N) 18:16:11 2401.200-2431.200
PCSat 29 Sep 18:20:35 18:23:58 16° 44° (NE) 18:27:20 145.827
Oscar 19 29 Sep 18:20:59 18:23:39 14° 61° (ENE) 18:26:19 437.125/150
50 SAT 29 Sep 18:25:45 18:28:49 25° 96° (E) 18:31:50 437.505
BUGSAT 1 29 Sep 18:28:21 18:32:26 70° 76° (ENE) 18:36:29 437.445
DUCHIFAT 1 29 Sep 18:32:56 18:36:51 39° 262° (W) 18:40:47 145.980
QB50P1 29 Sep 18:37:08 18:40:52 31° 263° (W) 18:44:37 145.935-145.965
DX 1 29 Sep 18:39:01 18:42:33 24° 96° (E) 18:46:03 434.975-435.025
AIST 2 29 Sep 18:43:35 18:47:48 74° 58° (ENE) 18:51:59 435.215
YUBILEINY 29 Sep 18:46:51 18:52:11 17° 63° (ENE) 18:57:29 435.215
POPSAT HIP 1 29 Sep 18:51:22 18:54:39 22° 265° (W) 18:57:57 437.405
CUBEBUG 1 29 Sep 18:52:01 18:56:21 76° 101° (ESE) 19:00:40 437.445
VELOX 1 29 Sep 18:52:05 18:56:25 56° 101° (E) 19:00:43 145.980
M-CUBED/EXP-1 PRIME 29 Sep 18:57:50 19:00:34 25° 102° (ESE) 19:03:20 437.505
ESTCUBE 1 29 Sep 18:59:48 19:04:15 56° 287° (WNW) 19:08:40 437.505/2401.250
NANOSAT C BR1 29 Sep 19:07:22 19:09:55 16° 267° (W) 19:12:28 145.865
SPROUT 29 Sep 19:25:02 19:29:17 75° 101° (E) 19:33:32 437.525
Gurwin Techsat 1B 29 Sep 19:29:46 19:34:20 30° 67° (ENE) 19:38:55 435.225
JAS-2 29 Sep 19:35:21 19:40:32 25° 270° (W) 19:46:14 435.910
UKube-1 29 Sep 19:42:32 19:46:52 83° 284° (WNW) 19:51:10 .
AISAT 29 Sep 19:45:16 19:49:15 34° 289° (WNW) 19:53:12 437.250
PHONESAT 2.4 29 Sep 19:46:28 19:49:25 81° 7° (N) 19:52:22 2401.200-2431.200
AUBIESAT-1 29 Sep 19:52:55 19:56:12 64° 289° (WNW) 19:59:31 437.475
Oscar 19 29 Sep 19:57:08 20:02:20 73° 258° (WSW) 20:07:32 437.125/150
50 SAT 29 Sep 19:59:29 20:02:08 19° 292° (WNW) 20:04:46 437.505
PCSat 29 Sep 20:02:36 20:08:03 83° 244° (WSW) 20:13:27 145.827
AO-7 29 Sep 20:05:23 20:11:08 21° 53° (NE) 20:16:53 29.400- 29.500
DX 1 29 Sep 20:14:59 20:18:41 28° 291° (WNW) 20:22:22 434.975-435.025
SWISSCUBE 29 Sep 20:24:29 20:26:50 13° 91° (E) 20:29:10 437.505
Cosmos 2504 29 Sep 20:30:10 20:36:32 29° 72° (ENE) 20:43:12 435.465 / 435.565
VELOX 1 29 Sep 20:30:15 20:32:23 13° 297° (WNW) 20:34:30 145.980
SO-50 29 Sep 20:31:52 20:36:04 30° 113° (ESE) 20:40:14 436.795
M-CUBED/EXP-1 PRIME 29 Sep 20:32:59 20:34:57 15° 297° (WNW) 20:36:55 437.505
Cosmos 2491 29 Sep 20:36:18 20:44:30 46° 88° (E) 20:52:45 435.465 / 435.565
BEESAT 29 Sep 20:36:42 20:39:42 16° 92° (E) 20:42:42 436.000
TISAT 1 29 Sep 20:39:13 20:43:24 83° 286° (WNW) 20:47:34 437.305
YUBILEINY 29 Sep 20:41:32 20:50:17 87° 82° (E) 20:59:00 435.215
ITAMSAT 1 29 Sep 20:54:13 20:59:12 51° 71° (ENE) 21:04:13 435.822/435.867
Gurwin Techsat 1B 29 Sep 21:09:27 21:14:11 33° 263° (W) 21:18:57 435.225
PHONESAT 2.4 29 Sep 21:22:45 21:25:22 29° 205° (SSW) 21:27:59 2401.200-2431.200
AIST 1 29 Sep 21:42:23 21:45:09 17° 72° (ENE) 21:47:53
MOZHAYETS 4 29 Sep 21:47:38 21:50:24 16° 92° (E) 21:53:09
ITUPSAT 1 29 Sep 21:48:03 21:52:54 89° 88° (E) 21:57:43 437.325
AO-7 29 Sep 21:54:32 22:02:52 88° 253° (WSW) 22:11:14 29.400- 29.500
SWISSCUBE 29 Sep 22:00:15 22:04:59 60° 287° (WNW) 22:09:42 437.505
KKS-1 29 Sep 22:01:02 22:02:42 12° 91° (E) 22:04:23 437.445
O/OREOS (USA 219) 29 Sep 22:10:21 22:13:25 17° 56° (NE) 22:16:27 437.305
SO-50 29 Sep 22:12:06 22:16:28 33° 310° (NW) 22:20:48 436.795
BEESAT 29 Sep 22:13:06 22:17:44 49° 288° (WNW) 22:22:20 436.000
HORYU 2 29 Sep 22:17:57 22:20:24 15° 64° (ENE) 22:22:52 437.375
Cosmos 2504 29 Sep 22:22:55 22:30:07 52° 269° (W) 22:37:48 435.465 / 435.565
STARS 29 Sep 22:29:55 22:31:21 11° 91° (E) 22:32:48 437.465
Cosmos 2491 29 Sep 22:33:26 22:41:24 38° 287° (WNW) 22:49:29 435.465 / 435.565
ITAMSAT 1 29 Sep 22:35:27 22:38:56 18° 267° (W) 22:42:26 435.822/435.867
YUBILEINY 29 Sep 22:40:43 22:45:49 17° 282° (WNW) 22:50:55 435.215
NOAA 15 29 Sep 22:49:09 22:49:57 10° 58° (ENE) 22:50:44 137.62
BRITE-PL 29 Sep 23:04:24 23:09:21 32° 69° (ENE) 23:14:11 437.365/2234.400
CUTE-I 29 Sep 23:09:34 23:12:05 14° 60° (ENE) 23:14:36 437.470
Cubesat XI-IV 29 Sep 23:10:02 23:12:32 14° 60° (ENE) 23:15:03 437.490
CUBESAT XI-V 29 Sep 23:12:11 23:15:04 16° 92° (E) 23:17:55 437.345
AIST 1 29 Sep 23:18:57 23:22:53 36° 269° (W) 23:26:46
MOZHAYETS 4 29 Sep 23:23:20 23:27:49 49° 287° (WNW) 23:32:16
ITUPSAT 1 29 Sep 23:29:31 23:29:58 10° 300° (WNW) 23:30:24 437.325
KKS-1 29 Sep 23:35:16 23:39:37 58° 287° (WNW) 23:43:56 437.445
LilacSat-2 29 Sep 23:45:08 23:47:53 20° 69° (ENE) 23:50:39 437.200
O/OREOS (USA 219) 29 Sep 23:48:40 23:53:06 48° 254° (WSW) 23:57:29 437.305
AO-7 29 Sep 23:51:51 23:56:37 16° 269° (W) 00:01:26 29.400- 29.500
HORYU 2 29 Sep 23:52:14 23:56:31 50° 260° (W) 00:00:49 437.375
NOAA 18 30 Sep 00:03:32 00:08:27 35° 68° (ENE) 00:13:22 137.9125
STARS 30 Sep 00:03:46 00:08:04 59° 286° (WNW) 00:12:21 437.465
CUSAT 1 30 Sep 00:06:10 00:10:40 20° 80° (E) 00:15:42 437.405
GOMX 1 30 Sep 00:21:51 00:27:14 72° 76° (ENE) 00:32:21 467.674
NOAA 15 30 Sep 00:23:31 00:28:49 80° 75° (ENE) 00:34:10 137.62
DOVE 4 30 Sep 00:34:27 00:39:07 41° 72° (ENE) 00:43:33 437.250
BRITE-PL 30 Sep 00:42:29 00:47:39 36° 264° (W) 00:52:46 437.365/2234.400
CUTE-I 30 Sep 00:46:07 00:51:25 79° 257° (WSW) 00:56:45 437.470
Cubesat XI-IV 30 Sep 00:46:35 00:51:54 79° 257° (WSW) 00:57:14 437.490
CUBESAT XI-V 30 Sep 00:48:11 00:52:42 48° 287° (WNW) 00:57:09 437.345
HO-68 30 Sep 00:50:32 00:56:08 26° 60° (ENE) 01:01:44 435.675
RS-15 30 Sep 00:58:59 01:09:03 37° 105° (ESE) 01:19:32 29.354- 29.394
GONETS M04 30 Sep 01:04:35 01:12:14 32° 70° (ENE) 01:19:46
SEEDS 30 Sep 01:16:35 01:18:31 13° 65° (ENE) 01:20:29 437.485
CUTE 1.7 + AOD 2 30 Sep 01:17:31 01:20:32 19° 67° (ENE) 01:23:35 437.475
